#timestamp,LO_Frequency,Hit,StdDev 
1533196815.8,286047000.1,N
1533196835.7,286047000.4,N
1533196855.5,286047002.5,N
1533196875.4,286047002.7,N
1533196895.2,286047000.3,N
1533196915.0,286047000.4,N
1533196915.9,286047000.4,N
1533196935.8,286047002.4,N
1533196955.6,286047002.7,N
1533196975.4,286047002.7,N
1533196995.3,286047002.1,N
1533197015.1,286047002.5,N
1533197016.0,286047002.5,N
1533197035.2,286047002.6,N
1533197055.0,286047002.3,N
1533197055.9,286047002.3,N
1533197075.8,286047002.5,N
1533197095.6,286047002.8,N
1533197115.5,286047002.4,N
1533197135.3,286047000.2,N
1533197155.1,286047000.2,N
1533197175.9,286047002.8,N
1533197195.7,286047002.6,N
1533197215.5,286047002.5,N
1533197235.4,286047001.7,N
1533197255.2,286047002.4,N
1533197275.1,286047002.3,N
1533197276.0,286047002.3,N
1533197295.8,286047000.7,N
1533197315.6,286047000.5,N
1533197335.5,286047000.5,N
1533197355.3,286047000.3,N
1533197375.1,286047002.8,N
1533197395.9,286047000.2,N
1533197415.7,286047000.5,N
1533197435.6,286047000.6,N
1533197455.4,286047000.5,N
1533197475.2,286047000.0,N
1533197495.1,286047000.9,N
1533197496.0,286047000.9,N
1533197515.8,286047000.0,N
1533197535.7,286047000.3,N
1533197555.5,286047000.0,N
1533197575.3,286046999.8,N
1533197595.2,286047000.1,N
1533197615.0,286047002.5,N
1533197615.9,286047002.5,N
1533197635.7,286047002.4,N
1533197655.6,286047001.9,N
1533197675.4,286047002.3,N
1533197695.3,286046999.8,N
1533197715.1,286047002.2,N
1533197735.8,286047002.3,N
1533197755.7,286047002.4,N
1533197775.5,286047001.9,N
1533197795.4,286046999.9,N
1533197815.2,286046999.8,N
1533197835.0,286047002.4,N
1533197835.9,286047002.4,N
1533197855.8,286047000.1,N
1533197875.6,286046999.8,N
1533197895.5,286047000.4,N
1533197915.3,286047002.8,N
1533197935.1,286047000.3,N
1533197955.9,286047000.7,N
1533197975.7,286047002.7,N
1533197995.5,286046999.8,N
1533198015.4,286046999.7,N
1533198035.2,286047002.5,N
1533198055.1,286047000.0,N
1533198056.0,286047000.0,N
1533198075.8,286047002.8,N
1533198095.6,286047002.8,N
1533198115.5,286047002.8,N
1533198135.3,286047000.3,N
1533198155.2,286047000.2,N
1533198175.9,286047001.0,N
1533198195.7,286046999.9,N
1533198215.6,286046999.9,N
1533198235.4,286047000.2,N
1533198255.2,286046998.5,N
1533198275.1,286046998.1,N
1533198276.0,286046998.1,N
1533198295.8,286046998.8,N
1533198315.7,286046998.7,N
1533198335.5,286046998.7,N
1533198355.3,286047001.1,N
1533198375.2,286047001.1,N
1533198395.0,286047000.9,N
1533198395.9,286047000.9,N
1533198415.8,286047000.6,N
1533198435.6,286047000.8,N
1533198455.4,286047000.7,N
1533198475.3,286047001.1,N
1533198495.1,286047000.6,N
1533198515.8,286046999.9,N
1533198535.7,286047000.4,N
1533198555.5,286047000.6,N
1533198575.4,286047000.0,N
1533198595.2,286047000.6,N
1533198615.0,286047000.8,N
1533198615.9,286047000.8,N
1533198635.8,286047000.5,N
1533198655.7,286047000.0,N
1533198675.6,286047000.4,N
1533198695.4,286047001.0,N
1533198715.2,286046998.6,N
1533198735.1,286047001.0,N
1533198736.0,286047001.0,N
1533198755.8,286047000.7,N
1533198775.7,286047000.8,N
1533198795.5,286046998.6,N
1533198815.3,286046998.1,N
1533198835.2,286046998.2,N
1533198855.9,286047000.2,N
1533198875.7,286047000.0,N
1533198895.6,286047000.7,N
1533198915.4,286046998.1,N
1533198935.2,286047001.1,N
1533198955.1,286047001.1,N
1533198956.0,286047001.1,N
1533198975.8,286046999.9,N
1533198995.7,286047000.6,N
1533199015.5,286047000.9,N
1533199035.3,286047000.3,N
1533199055.2,286047001.0,N
1533199075.0,286046998.6,N
1533199075.9,286046998.6,N
1533199095.8,286046999.6,N
1533199115.6,286046996.9,Y
1533199135.4,286046996.8,P
1533199155.3,286046997.8,N
1533199175.1,286046996.6,N
1533199195.8,286046996.6,N
1533199215.7,286046996.8,N
1533199235.5,286046996.7,N
1533199255.4,286046997.5,N
1533199275.2,286046998.4,N
1533199295.0,286046998.7,N
1533199295.9,286046998.7,N
1533199315.8,286046998.8,N
1533199335.6,286047000.7,N
1533199355.4,286047000.9,N
1533199375.3,286047001.0,N
1533199395.1,286046998.5,N
1533199415.9,286046998.5,N
1533199435.7,286046998.7,N
1533199455.5,286046999.4,N
1533199475.4,286046998.1,N
1533199495.2,286046998.6,N
1533199515.0,286046999.2,N
1533199515.9,286046999.2,N
1533199535.8,286046999.4,N
1533199555.6,286046997.0,N
1533199575.5,286046996.6,N
1533199595.3,286046996.7,N
1533199615.1,286046997.1,N
1533199635.9,286046996.9,N
1533199655.7,286046997.4,N
1533199675.5,286046996.8,N
1533199695.4,286046996.9,N
1533199715.2,286046997.1,N
1533199735.1,286046997.2,N
1533199736.0,286046997.2,N
1533199755.8,286046996.9,N
1533199775.6,286046997.6,N
1533199795.5,286046997.2,N
1533199815.3,286046997.5,N
1533199835.2,286046997.4,N
1533199855.9,286046997.3,N
1533199875.7,286046997.4,N
1533199895.6,286046997.7,N
1533199915.4,286046997.5,N
1533199935.2,286046996.2,Y
1533199955.1,286046997.2,P
1533199956.0,286046997.2,P
1533199975.8,286046997.4,P
1533199995.7,286046996.7,Y
1533200015.5,286047000.9,P
1533200035.3,286047000.3,N
1533200055.2,286047002.4,N
1533200075.0,286047002.3,N
1533200075.9,286047002.3,N
1533200095.7,286047000.4,N
1533200115.6,286046999.8,N
1533200135.4,286047002.8,N
1533200155.3,286047002.4,N
1533200175.1,286047002.8,N
1533200176.0,286047002.8,N
1533200195.8,286047000.2,N
1533200215.7,286047000.1,N
1533200235.5,286047000.1,N
1533200255.4,286047000.9,N
1533200275.2,286047000.2,N
1533200295.0,286047000.3,N
1533200295.9,286047000.3,N
1533200315.8,286047000.0,N
1533200335.6,286046999.9,N
1533200355.4,286046999.9,N
1533200375.3,286047000.6,N
1533200395.1,286046999.9,N
